Weather History for South Pass, WY

Change the Weather History Date:

Sunday, May 5, 2013

  Actual Average (KLND) Record (KLND)
Temperature  
Mean Temperature 36 °F 50 °F  
Max Temperature 42 °F 63 °F 82 °F (1966)
Min Temperature 30 °F 37 °F 18 °F (1912)
Degree Days  
Heating Degree Days 29 15  
Month to date heating degree days 79  
Since 1 July heating degree days 7333  
Cooling Degree Days 0 0  
Month to date cooling degree days 0  
Year to date cooling degree days 0  
Moisture  
Dew Point 28 °F    
Average Humidity 74    
Maximum Humidity 100    
Minimum Humidity 53    
Precipitation  
Precipitation 0.00 in 0.08 in 1.45 in (2007)
Month to date precipitation 0.38  
Year to date precipitation 4.40  
Snow  
Snow 0.00 in 0.30 in - ()
Month to date snowfall 1.7  
Since 1 July snowfall 88.2  
Snow Depth -    
Sea Level Pressure  
Sea Level Pressure 30.10 in    
Wind  
Wind Speed 15 mph (North)    
Max Wind Speed 23 mph    
Max Gust Speed 28 mph    
Visibility 10 miles    
Events Snow    
T = Trace of Precipitation, MM = Missing Value Source: NWS Daily Summary

Daily Weather History Graph

Daily Weather History Graph

Search for Another Location

Airport:

Trip Planner

Search our weather history database for the weather conditions in past years. The results will help you decide how hot, cold, wet, or windy it might be!

Date:

Astronomy

May. 05, 2013 Rise Set
Actual Time 6:04 AM MDT 8:19 PM MDT
Civil Twilight 5:33 AM MDT 8:51 PM MDT
Nautical Twilight 4:54 AM MDT 9:29 PM MDT
Astronomical Twilight 4:12 AM MDT 10:12 PM MDT
Moon 3:41 AM MDT (5/5) 4:17 PM MDT (5/5)
Length of Visible Light 15h 18m
Length of Day
14h 15m
Waning Crescent, 17% of the Moon is Illuminated
May 5
Waning Crescent
May 9
New
May 17
First Quarter
May 24
Full
May 31
Last Quarter

Hourly Weather History & Observations

Time (MDT) Temp. Windchill Dew Point Humidity Pressure Visibility Wind Dir Wind Speed Gust Speed Precip Events Conditions
12:15 AM 32.0 °F 22.5 °F 32.0 °F 100% 30.14 in 10.0 mi North 12.7 mph 17.3 mph N/A   Mostly Cloudy
12:35 AM 32.0 °F 21.2 °F 32.0 °F 100% 30.13 in 10.0 mi North 16.1 mph 23.0 mph N/A   Overcast
12:55 AM 32.0 °F 21.6 °F 32.0 °F 100% 30.13 in 10.0 mi North 15.0 mph 19.6 mph N/A   Mostly Cloudy
1:15 AM 32.0 °F 21.2 °F 32.0 °F 100% 30.13 in 10.0 mi North 16.1 mph 26.5 mph N/A   Overcast
1:35 AM 32.0 °F 22.1 °F 32.0 °F 100% 30.12 in 10.0 mi North 13.8 mph 21.9 mph N/A   Overcast
1:55 AM 32.0 °F 20.8 °F 32.0 °F 100% 30.12 in 10.0 mi North 17.3 mph 23.0 mph N/A   Overcast
2:15 AM 32.0 °F 22.5 °F 32.0 °F 100% 30.13 in 7.0 mi North 12.7 mph 18.4 mph N/A Snow Light Snow
2:35 AM 32.0 °F 22.5 °F 32.0 °F 100% 30.12 in 1.2 mi North 12.7 mph 21.9 mph N/A Snow Light Snow
2:55 AM 32.0 °F 21.2 °F 30.2 °F 93% 30.11 in 3.0 mi North 16.1 mph 21.9 mph N/A Snow Light Snow
3:15 AM 32.0 °F 20.5 °F 30.2 °F 93% 30.10 in 7.0 mi North 18.4 mph 23.0 mph N/A Snow Light Snow
3:35 AM 32.0 °F 22.1 °F 30.2 °F 93% 30.10 in 10.0 mi North 13.8 mph 25.3 mph N/A   Overcast
3:55 AM 32.0 °F 22.5 °F 30.2 °F 93% 30.10 in 10.0 mi North 12.7 mph 20.7 mph N/A   Overcast
4:15 AM 32.0 °F 19.8 °F 30.2 °F 93% 30.09 in 10.0 mi North 20.7 mph 27.6 mph N/A   Overcast
4:35 AM 32.0 °F 21.2 °F 30.2 °F 93% 30.09 in 10.0 mi North 16.1 mph 26.5 mph N/A   Scattered Clouds
4:55 AM 32.0 °F 20.1 °F 30.2 °F 93% 30.09 in 10.0 mi North 19.6 mph 24.2 mph N/A   Scattered Clouds
5:15 AM 32.0 °F 21.6 °F 30.2 °F 93% 30.09 in 10.0 mi North 15.0 mph 21.9 mph N/A   Mostly Cloudy
5:35 AM 32.0 °F 19.8 °F 30.2 °F 93% 30.09 in 10.0 mi North 20.7 mph - N/A   Overcast
5:55 AM 32.0 °F 19.5 °F 28.4 °F 87% 30.08 in 10.0 mi North 21.9 mph 26.5 mph N/A   Overcast
6:15 AM 32.0 °F 21.6 °F 28.4 °F 87% 30.09 in 10.0 mi North 15.0 mph 21.9 mph N/A   Scattered Clouds
6:35 AM 30.2 °F 18.9 °F 30.2 °F 100% 30.09 in 10.0 mi North 16.1 mph - N/A   Mostly Cloudy
6:55 AM 30.2 °F 19.3 °F 30.2 °F 100% 30.10 in 10.0 mi North 15.0 mph 23.0 mph N/A   Mostly Cloudy
7:15 AM 32.0 °F 20.5 °F 30.2 °F 93% 30.10 in 10.0 mi North 18.4 mph 24.2 mph N/A   Scattered Clouds
7:35 AM 32.0 °F 20.1 °F 28.4 °F 87% 30.10 in 10.0 mi North 19.6 mph 24.2 mph N/A   Clear
7:55 AM 32.0 °F 20.1 °F 30.2 °F 93% 30.10 in 10.0 mi North 19.6 mph - N/A   Clear
8:15 AM 32.0 °F 20.1 °F 30.2 °F 93% 30.10 in 10.0 mi North 19.6 mph 25.3 mph N/A   Clear
8:35 AM 33.8 °F 23.2 °F 30.2 °F 87% 30.11 in 10.0 mi North 17.3 mph 26.5 mph N/A   Clear
8:55 AM 35.6 °F 24.0 °F 30.2 °F 81% 30.10 in 10.0 mi North 23.0 mph 27.6 mph N/A   Scattered Clouds
9:15 AM 35.6 °F 24.8 °F 28.4 °F 75% 30.10 in 10.0 mi North 19.6 mph 27.6 mph N/A   Clear
9:35 AM 35.6 °F 27.1 °F 28.4 °F 75% 30.11 in 10.0 mi North 12.7 mph 23.0 mph N/A   Clear
9:55 AM 37.4 °F 27.5 °F 28.4 °F 70% 30.10 in 10.0 mi North 18.4 mph 26.5 mph N/A   Clear
10:15 AM 37.4 °F 28.2 °F 28.4 °F 70% 30.10 in 10.0 mi North 16.1 mph 21.9 mph N/A   Clear
10:35 AM 37.4 °F 28.5 °F 26.6 °F 65% 30.11 in 10.0 mi North 15.0 mph 23.0 mph N/A   Clear
10:55 AM 39.2 °F 30.2 °F 28.4 °F 65% 30.10 in 10.0 mi North 17.3 mph 26.5 mph N/A   Clear
11:15 AM 37.4 °F 27.8 °F 28.4 °F 70% 30.10 in 10.0 mi North 17.3 mph 25.3 mph N/A   Clear
11:35 AM 41.0 °F 32.5 °F 28.4 °F 61% 30.11 in 10.0 mi NNE 17.3 mph 25.3 mph N/A   Clear
12:15 PM 37.4 °F 28.2 °F 28.4 °F 70% 30.11 in 10.0 mi North 16.1 mph 21.9 mph N/A   Scattered Clouds
12:35 PM 39.2 °F 29.8 °F 28.4 °F 65% 30.11 in 10.0 mi North 18.4 mph 23.0 mph N/A   Mostly Cloudy
12:55 PM 41.0 °F 33.9 °F 26.6 °F 57% 30.10 in 10.0 mi North 12.7 mph 24.2 mph N/A   Mostly Cloudy
1:15 PM 41.0 °F 32.5 °F 26.6 °F 57% 30.10 in 10.0 mi North 17.3 mph 27.6 mph N/A   Overcast
1:35 PM 41.0 °F 32.5 °F 26.6 °F 57% 30.10 in 10.0 mi North 17.3 mph 23.0 mph N/A   Overcast
1:55 PM 41.0 °F 33.5 °F 26.6 °F 57% 30.11 in 10.0 mi NNE 13.8 mph 21.9 mph N/A   Overcast
2:15 PM 41.0 °F 34.7 °F 26.6 °F 57% 30.11 in 10.0 mi North 10.4 mph - N/A   Overcast
2:35 PM 41.0 °F 34.3 °F 26.6 °F 57% 30.11 in 10.0 mi North 11.5 mph - N/A   Overcast
2:55 PM 42.8 °F 37.5 °F 26.6 °F 53% 30.11 in 10.0 mi North 9.2 mph - N/A   Overcast
3:15 PM 42.8 °F 38.0 °F 26.6 °F 53% 30.12 in 10.0 mi NNE 8.1 mph - N/A   Overcast
3:35 PM 42.8 °F 38.6 °F 26.6 °F 53% 30.11 in 10.0 mi ENE 6.9 mph - N/A   Overcast
3:55 PM 41.0 °F 34.7 °F 26.6 °F 57% 30.10 in 10.0 mi NE 10.4 mph - N/A   Overcast
4:15 PM 41.0 °F 33.9 °F 26.6 °F 57% 30.09 in 10.0 mi NNE 12.7 mph 18.4 mph N/A   Overcast
4:35 PM 42.8 °F 37.0 °F 28.4 °F 57% 30.08 in 10.0 mi NE 10.4 mph - N/A   Overcast
4:55 PM 42.8 °F 37.5 °F 26.6 °F 53% 30.09 in 10.0 mi NNE 9.2 mph 16.1 mph N/A   Overcast
5:15 PM 42.8 °F 36.2 °F 26.6 °F 53% 30.08 in 10.0 mi North 12.7 mph 18.4 mph N/A   Mostly Cloudy
5:35 PM 42.8 °F 35.4 °F 26.6 °F 53% 30.08 in 10.0 mi North 15.0 mph 19.6 mph N/A   Scattered Clouds
5:55 PM 42.8 °F 37.5 °F 26.6 °F 53% 30.08 in 10.0 mi NNE 9.2 mph 18.4 mph N/A   Scattered Clouds
6:15 PM 42.8 °F 37.0 °F 26.6 °F 53% 30.09 in 10.0 mi North 10.4 mph 18.4 mph N/A   Mostly Cloudy
6:35 PM 42.8 °F 36.6 °F 26.6 °F 53% 30.08 in 10.0 mi North 11.5 mph - N/A   Mostly Cloudy
6:55 PM 42.8 °F 37.0 °F 26.6 °F 53% 30.09 in 10.0 mi North 10.4 mph - N/A   Scattered Clouds
7:15 PM 42.8 °F 36.2 °F 26.6 °F 53% 30.08 in 10.0 mi North 12.7 mph - N/A   Clear
7:35 PM 42.8 °F 37.5 °F 26.6 °F 53% 30.08 in 10.0 mi North 9.2 mph - N/A   Clear
7:55 PM 41.0 °F 33.9 °F 26.6 °F 57% 30.08 in 10.0 mi North 12.7 mph 16.1 mph N/A   Clear
8:35 PM 39.2 °F 31.2 °F 26.6 °F 61% 30.08 in 10.0 mi North 13.8 mph - N/A   Scattered Clouds
8:55 PM 39.2 °F 32.0 °F 26.6 °F 61% 30.09 in 10.0 mi North 11.5 mph - N/A   Clear
9:15 PM 37.4 °F 28.9 °F 26.6 °F 65% 30.09 in 10.0 mi NNW 13.8 mph - N/A   Clear
9:35 PM 37.4 °F 28.5 °F 26.6 °F 65% 30.09 in 10.0 mi NNW 15.0 mph - N/A   Clear
9:55 PM 37.4 °F 28.5 °F 26.6 °F 65% 30.09 in 10.0 mi NNW 15.0 mph - N/A   Clear
10:15 PM 37.4 °F 28.9 °F 26.6 °F 65% 30.09 in 10.0 mi NNW 13.8 mph - N/A   Clear
10:35 PM 37.4 °F 29.8 °F 26.6 °F 65% 30.09 in 10.0 mi NNW 11.5 mph - N/A   Clear
10:55 PM 35.6 °F 26.6 °F 26.6 °F 70% 30.09 in 10.0 mi NNW 13.8 mph - N/A   Clear
11:15 PM 37.4 °F 28.9 °F 26.6 °F 65% 30.09 in 10.0 mi NNW 13.8 mph - N/A   Clear
11:35 PM 35.6 °F 28.6 °F 26.6 °F 70% 30.09 in 10.0 mi North 9.2 mph - N/A   Clear
11:55 PM 35.6 °F 26.6 °F 26.6 °F 70% 30.09 in 10.0 mi NNW 13.8 mph - N/A   Clear